Tracking 33198 objects as of 14-Feb-2026
HD Live streaming from Space Station
objects crossing your sky now

OBJECT M

Track OBJECT M now!
10-day predictions


NORAD ID: 62620
Int'l Code: 2025-009M
Perigee: 439.2 km
Apogee: 443.3 km
Inclination: 97.4 °
Period: 93.3 minutes
Semi major axis: 6812 km
RCS: Unknown
Launch date: January 14, 2025
Source: United States (US)
Launch site: AIR FORCE WESTERN TEST RANGE (AFWTR)
Your satellite tracking list
Your tracking list is empty




NASA's NSSDC Master Catalog

Two Line Element Set (TLE):
1 62620U 25009M   26044.66688475  .00048085  00000-0  10495-2 0  9994
2 62620  97.4023 130.9970 0003024  22.5017 337.6364 15.44062846 60297
Source of the keplerian elements: AFSPC